Location: B�ges�
(55.1972°N, 11.9035°E)
Time: 23:56:56
(UTC+00:00)

Daily predictions for brighter satellites

Satellite Brightness Start Highest point End
(mag) Time Altitude Azimuth Time Altitude Azimuth Time Altitude Azimuth
Cosmos 2026 Rocket 4.2 20:30:02 10° S 20:36:14 61° E 20:42:32 10° NNE
Cosmos 1867 3.9 20:32:47 10° NW 20:38:11 61° SW 20:43:32 10° SSE
Cosmos 2227 Rocket 3.9 20:33:22 10° NNW 20:38:14 28° NNE 20:43:04 10° E
Cosmos 1461 4.3 20:34:13 10° WSW 20:38:24 48° NNW 20:42:48 10° NE
STARLINK-1238 4.1 20:34:49 10° W 20:38:48 44° SSW 20:42:44 10° SE
Cosmos 2369 Rocket 2.3 20:33:50 10° SSW 20:39:24 61° ESE 20:44:58 10° NE
CARTOSAT-1 3.6 20:35:12 10° SSE 20:39:32 85° WSW 20:43:53 10° NNW
Cosmos 1766 4.3 20:36:41 10° NNW 20:40:31 45° W 20:44:20 10° SSW
Cosmos 1553 Rocket 4.2 20:35:01 10° N 20:41:17 65° ENE 20:47:24 10° SSE
STARLINK-1239 3.7 20:37:11 10° W 20:41:18 64° S 20:45:25 10° ESE
STARLINK-1201 4.2 20:39:49 10° W 20:43:45 42° SSW 20:47:41 10° SE
STARLINK-1240 3.7 20:42:07 10° W 20:46:14 64° S 20:50:20 10° ESE
STARLINK-1206 4.2 20:44:46 10° W 20:48:41 41° SSW 20:52:35 10° SE
STARLINK-1216 3.7 20:47:07 10° W 20:51:13 63° S 20:55:19 10° ESE
STARLINK-1205 4.3 20:49:45 10° W 20:53:38 39° SSW 20:57:30 10° SE
Resurs 01 Rocket 4.1 20:52:57 10° SW 20:56:05 19° W 20:59:14 10° NW
STARLINK-1237 3.7 20:52:05 10° W 20:56:11 62° S 21:00:17 10° ESE
STARLINK-1218 4.3 20:54:45 10° W 20:58:36 38° SSW 21:02:27 10° SE
Cosmos 1536 Rocket 4.2 20:56:24 10° SSE 21:00:26 39° E 21:04:33 10° NNE
STARLINK-52 3.9 20:57:51 10° SW 21:00:38 27° SSE 21:03:26 10° E
STARLINK-1202 3.7 20:57:04 10° W 21:01:10 61° S 21:05:15 10° ESE
Cosmos 1544 Rocket 3.7 20:57:08 10° NNW 21:01:29 73° W 21:05:50 10° S
ATLAS CENTAUR R/B 0.8 21:00:23 10° WNW 21:02:10 55° NNE 21:04:19 10° E
CENTAUR R/B 3.8 20:54:55 10° NW 21:02:24 47° WSW 21:10:35 10° SSE
STARLINK-1254 4.4 20:59:44 10° W 21:03:33 36° SSW 21:07:22 10° SE
SPOT 5 3.5 20:58:53 10° S 21:04:10 63° WSW 21:09:31 10° NNW
STARLINK-1203 3.7 21:01:48 10° W 21:05:54 60° S 21:10:00 10° ESE
BREEZE-M DEB 3.9 21:04:14 10° SW 21:07:01 33° SSE 21:13:57 10° E
Terra 2.0 21:03:14 10° S 21:07:59 72° WSW 21:12:46 10° NNW
USA 215 3.5 21:01:34 10° E 21:08:07 80° N 21:14:41 10° WNW
STARLINK-1231 4.5 21:04:43 10° W 21:08:30 34° SSW 21:12:15 10° SE
Cosmos 2292 Rocket 4.5 21:08:28 10° SE 21:10:46 19° E 21:12:58 10° NE
STARLINK-1246 3.7 21:07:01 10° W 21:11:06 59° S 21:15:11 10° ESE
Cosmos 1726 2.4 21:07:27 10° N 21:11:10 58° ENE 21:14:42 11° SSE
ATLAS 3B R/B 2.9 21:04:33 10° NW 21:11:13 64° SW 21:18:06 10° SSE
Cosmos 1655 Rocket 4.3 21:09:39 10° SSE 21:15:42 55° E 21:21:50 10° NNE
STARLINK-1224 3.7 21:11:58 10° W 21:16:03 57° SSW 21:20:07 10° ESE
NOSS 2-2 (D) 4.3 21:14:45 10° WSW 21:18:27 54° NNW 21:22:59 10° NE
Cosmos 1470 3.4 21:15:10 10° NNW 21:18:57 51° W 21:22:42 10° S
STARLINK-1444 2.7 21:18:30 10° SW 21:20:26 30° SSE 21:22:23 10° E
Meteor 2-10 4.0 21:15:41 10° NNW 21:20:45 88° W 21:25:44 11° SSE
STARLINK-1225 3.7 21:16:57 10° W 21:21:01 56° SSW 21:25:05 10° ESE
STARLINK-1452 2.7 21:19:09 10° SW 21:21:03 30° SSE 21:23:00 10° E
Cosmos 1674 4.2 21:18:37 11° SE 21:21:30 23° E 21:24:33 10° NE
APEX 4.0 21:15:53 10° SSW 21:21:53 89° ESE 21:26:38 10° NE
STARLINK-1392 2.6 21:20:04 10° SW 21:21:55 29° SSE 21:23:49 10° E
STARLINK-1399 2.7 21:20:05 10° SW 21:21:57 29° SSE 21:23:51 10° E
STARLINK-1393 2.7 21:20:07 10° SW 21:21:58 29° SSE 21:23:53 10° E
STARLINK-1394 2.7 21:20:09 10° SW 21:22:00 29° SSE 21:23:54 10° E
STARLINK-1397 2.7 21:20:11 10° SW 21:22:03 29° SSE 21:23:57 10° E
STARLINK-1395 2.6 21:20:13 10° SW 21:22:03 29° SSE 21:23:55 10° E
STARLINK-1396 2.7 21:20:12 10° SW 21:22:04 29° SSE 21:23:57 10° E
STARLINK-1414 2.6 21:20:13 10° SW 21:22:04 29° SSE 21:23:58 10° E
STARLINK-1408 2.6 21:20:16 10° SW 21:22:07 29° SSE 21:24:01 10° E
STARLINK-1404 2.7 21:20:16 10° SW 21:22:08 29° SSE 21:24:02 10° E
STARLINK-1416 2.6 21:20:17 10° SW 21:22:09 29° SSE 21:24:02 10° E
STARLINK-1415 2.7 21:20:17 10° SW 21:22:10 29° SSE 21:24:05 10° E
STARLINK-1450 2.7 21:20:18 10° SW 21:22:11 29° SSE 21:24:06 10° E
STARLINK-1406 2.6 21:20:22 10° SW 21:22:12 29° SSE 21:24:06 10° E
STARLINK-1401 2.7 21:20:20 10° SW 21:22:13 29° SSE 21:24:08 10° E
STARLINK-1417 2.7 21:20:24 10° SW 21:22:16 29° SSE 21:24:12 10° E
STARLINK-1402 2.7 21:20:25 10° SW 21:22:17 29° SSE 21:24:12 10° E
STARLINK-1413 2.7 21:20:25 10° SW 21:22:17 29° SSE 21:24:12 10° E
STARLINK-1419 2.6 21:20:26 10° SW 21:22:17 29° SSE 21:24:11 10° E
STARLINK-1422 2.7 21:20:30 10° SW 21:22:23 29° SSE 21:24:18 10° E
STARLINK-1453 2.7 21:20:30 10° SW 21:22:23 30° SSE 21:24:19 10° E
STARLINK-1398 2.7 21:20:31 10° SW 21:22:24 30° SSE 21:24:21 10° E
STARLINK-1420 2.7 21:20:34 10° SW 21:22:26 30° SSE 21:24:22 10° E
STARLINK-1440 2.7 21:20:34 10° SW 21:22:27 30° SSE 21:24:22 10° E
STARLINK-1436 (VISORSAT) 2.7 21:20:33 10° SW 21:22:27 30° SSE 21:24:24 10° E
STARLINK-1460 2.7 21:20:36 10° SW 21:22:29 30° SSE 21:24:24 10° E
STARLINK-1410 2.7 21:20:41 10° SW 21:22:33 30° SSE 21:24:29 10° E
STARLINK-1421 2.6 21:20:42 10° SW 21:22:33 29° SSE 21:24:29 10° E
STARLINK-1400 2.7 21:20:41 10° SW 21:22:34 30° SSE 21:24:29 10° E
STARLINK-1423 2.6 21:20:42 10° SW 21:22:34 29° SSE 21:24:28 10° E
STARLINK-1454 2.7 21:20:42 10° SW 21:22:35 30° SSE 21:24:30 10° E
STARLINK-1458 2.6 21:20:44 10° SW 21:22:37 30° SSE 21:24:31 10° E
STARLINK-1445 2.7 21:20:46 10° SW 21:22:39 30° SSE 21:24:35 10° E
STARLINK-1446 2.7 21:20:48 10° SW 21:22:41 30° SSE 21:24:37 10° E
STARLINK-1407 2.7 21:20:48 10° SW 21:22:41 30° SSE 21:24:37 10° E
STARLINK-1405 2.6 21:20:52 10° SW 21:22:42 29° SSE 21:24:35 10° E
STARLINK-1370 2.7 21:20:51 10° SW 21:22:44 30° SSE 21:24:40 10° E
STARLINK-1456 2.6 21:20:52 10° SW 21:22:45 30° SSE 21:24:39 10° E
STARLINK-1457 2.6 21:20:52 10° SW 21:22:45 30° SSE 21:24:40 10° E
STARLINK-1451 2.6 21:20:52 10° SW 21:22:45 30° SSE 21:24:40 10° E
STARLINK-1439 2.6 21:20:55 10° SW 21:22:46 29° SSE 21:24:39 10° E
STARLINK-1409 2.6 21:20:53 10° SW 21:22:46 30° SSE 21:24:41 10° E
STARLINK-1437 2.6 21:20:53 10° SW 21:22:46 30° SSE 21:24:41 10° E
STARLINK-1447 2.6 21:20:53 10° SW 21:22:46 30° SSE 21:24:42 10° E
STARLINK-1455 2.7 21:20:53 10° SW 21:22:46 30° SSE 21:24:42 10° E
STARLINK-1441 2.6 21:20:55 10° SW 21:22:48 30° SSE 21:24:44 10° E
STARLINK-1443 2.7 21:20:57 10° SW 21:22:51 30° SSE 21:24:47 10° E
STARLINK-1351 2.6 21:21:00 10° SW 21:22:53 30° SSE 21:24:49 10° E
STARLINK-1418 2.6 21:21:00 10° SW 21:22:53 30° SSE 21:24:49 10° E
STARLINK-1442 2.6 21:21:00 10° SW 21:22:54 30° SSE 21:24:50 10° E
STARLINK-1403 2.7 21:21:00 10° SW 21:22:54 30° SSE 21:24:50 10° E
STARLINK-1434 2.7 21:21:00 10° SW 21:22:54 30° SSE 21:24:50 10° E
STARLINK-1448 2.6 21:21:02 10° SW 21:22:55 30° SSE 21:24:51 10° E
STARLINK-1433 2.6 21:21:04 10° SW 21:22:56 30° SSE 21:24:53 10° E
STARLINK-1449 2.6 21:21:05 10° SW 21:22:58 30° SSE 21:24:53 10° E
STARLINK-1438 2.6 21:21:08 10° SW 21:23:01 30° SSE 21:24:55 10° E
STARLINK-1411 2.6 21:21:15 10° SW 21:23:08 30° SSE 21:25:03 10° E
STARLINK-1412 2.6 21:21:15 10° SW 21:23:08 30° SSE 21:25:04 10° E
BREEZE-M DEB (TANK) 3.8 21:11:13 10° WSW 21:23:33 47° S 21:27:15 10° ESE
SeaSat 1 4.2 21:21:51 10° ENE 21:24:53 16° ESE 21:27:48 10° SE
STARLINK-1230 3.8 21:21:55 10° W 21:25:58 54° SSW 21:30:01 10° ESE
BREEZE-M DEB (TANK) 4.2 21:22:53 10° SSW 21:26:32 15° SSE 21:28:49 10° SE
FALCON 9 DEB 3.9 21:24:08 10° SW 21:27:11 30° SSE 21:30:16 10° E
Cosmos 1606 Rocket 4.2 21:23:13 10° N 21:27:25 44° ENE 21:31:19 11° SE
BREEZE-M DEB (TANK) 3.6 21:24:28 10° W 21:28:03 35° SSW 21:31:31 10° ESE
Cosmos 1340 Rocket 2.9 21:24:18 10° NNW 21:28:25 89° WSW 21:32:10 12° SSE
STARLINK-60 3.1 21:25:22 10° WSW 21:28:27 49° SSE 21:31:33 10° E
Cosmos 1174 3.8 21:27:33 10° SSW 21:30:48 48° SE 21:34:45 10° NE
STARLINK-1243 3.8 21:26:55 10° W 21:30:58 53° SSW 21:35:00 10° ESE
COSMOS 2455 3.0 21:26:47 10° SSW 21:32:38 55° ESE 21:38:30 10° NE
COSMOS 2487 3.3 21:29:56 10° NW 21:33:13 40° WSW 21:36:14 11° S
Cosmos 1025 Rocket 3.0 21:31:06 10° S 21:35:24 89° ESE 21:39:46 10° NNE
STARLINK-1236 3.8 21:31:53 10° W 21:35:54 51° SSW 21:39:56 10° ESE
Cosmos 1975 Rocket 4.5 21:34:12 10° SW 21:38:19 37° WNW 21:42:25 10° N
NOSS 3-4 (A) 3.4 21:32:59 10° SW 21:38:57 69° SE 21:45:25 10° NE
NOSS 3-4 (C) 3.4 21:33:06 10° SW 21:39:03 69° SE 21:45:31 10° NE
Aureole 3 2.7 21:36:51 10° N 21:39:57 70° ENE 21:42:17 15° SSE
MTI 3.8 21:37:09 10° NNE 21:40:19 78° WNW 21:43:27 10° SSW
Cosmos 2263 4.4 21:35:21 10° SW 21:40:58 77° NW 21:46:38 10° NNE
ALOS 2 3.6 21:37:11 10° SE 21:41:16 39° ENE 21:45:23 10° N
Cosmos 292 Rocket 4.5 21:38:24 10° SW 21:43:11 57° WNW 21:48:02 10° NNE
Cosmos 1953 2.6 21:39:48 10° NNW 21:43:45 61° W 21:47:21 12° S
STARLINK-1369 4.5 21:40:24 10° SSW 21:43:48 27° SSE 21:47:13 10° E
ERBS 2.2 21:41:49 10° WNW 21:45:10 88° SSW 21:48:30 10° ESE
EXPRESS MD2 4.3 21:41:17 10° WSW 21:45:12 50° S 21:53:06 10° ESE
Cosmos 2297 Rocket 2.7 21:39:37 10° NNW 21:45:15 58° NE 21:50:49 10° SE
ATLAS 5 CENTAUR R/B 2.3 21:42:01 10° SSW 21:45:21 25° SE 21:47:18 10° E
STARLINK-1269 3.9 21:41:50 10° W 21:45:50 48° SSW 21:49:51 10° SE
RESURS DK-1 3.0 21:42:39 12° S 21:46:08 37° ESE 21:49:58 10° NE
Cosmos 1271 Rocket 3.4 21:44:02 10° SSW 21:47:54 56° WNW 21:51:51 10° N
Cosmos 1943 Rocket 3.4 21:42:33 10° WSW 21:47:56 46° NW 21:53:22 10° NNE
STARLINK-1372 4.4 21:44:41 10° SSW 21:48:09 28° SSE 21:51:36 10° E
Cosmos 1626 4.0 21:46:18 10° SE 21:48:46 18° E 21:51:21 10° NE
CZ-4C R/B 4.1 21:47:31 10° ESE 21:48:49 11° ESE 21:50:09 10° E
Cosmos 2219 3.4 21:43:25 10° NNW 21:49:07 70° NE 21:54:40 10° SE
Lacrosse 4 Rocket 2.7 21:45:18 10° NNW 21:49:27 40° NE 21:53:28 10° ESE
Cosmos 1992 Rocket 4.2 21:44:57 10° SSW 21:50:10 77° WNW 21:55:26 10° NNE
Cosmos 2228 3.1 21:46:16 10° N 21:50:31 67° ENE 21:54:03 14° SSE
STARLINK-1200 3.9 21:46:48 10° W 21:50:48 46° SSW 21:54:47 10° SE
STARLINK-1378 4.3 21:49:03 10° SSW 21:52:33 29° SSE 21:56:05 10° E
Spot 4 3.9 21:50:03 14° SSE 21:54:20 88° ENE 21:59:12 10° NNW
SL-4 R/B 2.5 21:50:55 10° WSW 21:55:37 55° S 22:00:21 10° E
Cosmos 921 Rocket 4.2 21:52:46 14° SSE 21:55:42 28° E 21:59:28 10° NE
STARLINK-1192 4.0 21:51:48 10° W 21:55:46 45° SSW 21:59:44 10° SE
STARLINK-1379 4.3 21:53:26 10° SSW 21:57:00 31° SSE 22:00:34 10° E
Cosmos 1242 Rocket 4.3 21:54:44 10° SW 21:58:03 31° WNW 22:01:23 10° N
Cosmos 1707 3.4 21:55:58 10° SSW 21:59:46 53° WNW 22:03:36 10° N
STARLINK-1244 4.0 21:56:46 10° W 22:00:42 43° SSW 22:04:30 11° SE
STARLINK-1329 4.2 21:57:07 10° SW 22:00:43 32° SSE 22:04:20 10° E
STARLINK-29 3.1 21:58:00 10° WSW 22:01:09 49° SSE 22:04:16 10° E
EO 1 Del DPAF 3.3 21:58:08 10° NNE 22:01:54 60° ESE 22:04:56 15° S
Timation 2 Rocket 4.2 21:58:26 10° NW 22:04:38 59° WSW 22:09:46 14° SSE
SL-4 R/B 1.3 22:03:43 19° SE 22:04:56 40° ENE 22:07:00 10° N
STARLINK-1362 4.2 22:01:33 10° SW 22:05:11 33° SSE 22:08:51 10° E
STARLINK-1138 4.1 22:01:44 10° W 22:05:39 41° SSW 22:09:16 12° SE
Cosmos 1656 Rocket 4.0 22:01:16 10° SW 22:06:51 69° NW 22:12:24 10° NNE
ATLAS 2AS CENTAUR R/B 3.1 21:59:15 10° SW 22:07:19 89° NW 22:15:12 10° NE
STARLINK-1373 4.1 22:06:01 10° SW 22:09:42 35° SSE 22:13:24 10° E
STARLINK-1143 4.1 22:06:44 10° W 22:10:38 40° SSW 22:14:04 13° SE
Cosmos 1726 Rocket 3.5 22:06:23 10° N 22:10:45 85° ENE 22:14:12 16° SSE
Okean 1-7 Rocket 4.5 22:09:54 15° SSE 22:13:14 37° E 22:17:28 10° NNE
STARLINK-1390 4.1 22:10:29 10° SW 22:14:12 36° SSE 22:17:56 10° E
Helios 1A 3.8 22:10:56 12° SE 22:14:35 44° ENE 22:18:35 10° N
ATLAS CENTAUR R/B 1.6 22:10:52 10° SW 22:15:08 71° NW 22:19:08 10° NE
STARLINK-1241 4.2 22:11:44 10° W 22:15:35 38° SSW 22:18:51 13° SE
STARLINK-1320 3.5 22:13:41 10° SW 22:16:34 34° SSE 22:19:27 10° E
STARLINK-1322 3.5 22:14:02 10° SW 22:16:55 34° SSE 22:19:48 10° E
STARLINK-1324 3.5 22:14:21 10° SW 22:17:13 34° SSE 22:20:07 10° E
STARLINK-1294 3.5 22:14:40 10° SW 22:17:32 34° SSE 22:20:26 10° E
Cosmos 1892 Rocket 4.0 22:14:31 16° SSE 22:17:46 47° E 22:21:57 10° NNE
STARLINK-1261 3.4 22:15:03 10° SW 22:17:55 34° SSE 22:20:48 10° E
STARLINK-1325 3.4 22:15:23 10° SW 22:18:16 35° SSE 22:21:09 10° E
SJ 16-02 1.9 22:14:06 10° NNW 22:18:29 53° ENE 22:22:33 12° SE
STARLINK-1333 3.4 22:15:45 10° SW 22:18:38 35° SSE 22:21:32 10° E
STARLINK-1334 3.4 22:16:02 10° SW 22:18:55 35° SSE 22:21:48 10° E
Cosmos 2098 Rocket 4.4 22:12:13 12° S 22:19:08 79° E 22:26:22 10° NNE
STARLINK-1326 3.4 22:16:21 10° SW 22:19:14 35° SSE 22:22:08 10° E
STARLINK-1323 3.4 22:16:44 10° SW 22:19:37 35° SSE 22:22:31 10° E
STARLINK-1349 3.4 22:17:01 10° SW 22:19:55 35° SSE 22:22:48 10° E
STARLINK-1365 4.0 22:16:12 10° SW 22:20:00 39° SSE 22:23:50 10° E
STARLINK-1336 3.4 22:17:20 10° SW 22:20:14 35° SSE 22:23:08 10° E
STARLINK-1239 4.2 22:16:43 10° W 22:20:33 37° SSW 22:23:39 14° SE
STARLINK-1331 3.4 22:17:43 10° SW 22:20:37 35° SSE 22:23:31 10° E
STARLINK-1344 3.4 22:18:01 10° SW 22:20:55 35° SSE 22:23:49 10° E
Cosmos 2315 Rocket 4.1 22:14:57 10° NNW 22:21:09 72° W 22:26:32 14° S
STARLINK-1343 3.4 22:18:24 10° SW 22:21:17 36° SSE 22:24:12 10° E
STARLINK-1346 3.4 22:18:40 10° SW 22:21:35 36° SSE 22:24:32 10° E
STARLINK-1328 3.4 22:19:06 10° SW 22:22:00 36° SSE 22:24:55 10° E
STARLINK-1354 3.4 22:19:24 10° SW 22:22:18 36° SSE 22:25:13 10° E
STARLINK-1347 3.4 22:19:41 10° SW 22:22:35 36° SSE 22:25:30 10° E
STARLINK-1357 3.4 22:20:06 10° SW 22:23:01 36° SSE 22:25:56 10° E
Cosmos 2227 Rocket 2.3 22:17:23 10° NNW 22:23:07 84° NE 22:28:23 12° SE
STARLINK-1335 3.4 22:20:24 10° SW 22:23:17 36° SSE 22:26:13 10° E
STARLINK-1327 3.4 22:20:44 10° SW 22:23:39 36° SSE 22:26:34 10° E
Cosmos 2369 Rocket 3.7 22:18:29 10° WSW 22:23:45 38° NW 22:29:01 10° NNE
STARLINK-1340 3.4 22:21:02 10° SW 22:23:57 36° SSE 22:26:52 10° E
STARLINK-1356 3.4 22:21:25 10° SW 22:24:20 37° SSE 22:27:15 10° E
STARLINK-1345 3.4 22:21:44 10° SW 22:24:38 37° SSE 22:27:33 10° E
STARLINK-1355 3.4 22:22:05 10° SW 22:24:59 37° SSE 22:27:55 10° E
Cosmos 1437 4.0 22:23:34 16° SE 22:25:08 25° E 22:27:41 10° NE
STARLINK-1321 3.4 22:22:26 10° SW 22:25:21 37° SSE 22:28:15 10° E
STARLINK-1240 4.3 22:21:40 10° W 22:25:28 35° SSW 22:28:23 15° SSE
STARLINK-1358 3.4 22:22:47 10° SW 22:25:43 37° SSE 22:28:38 10° E
STARLINK-1332 3.3 22:23:05 10° SW 22:26:00 37° SSE 22:28:56 10° E
STARLINK-1348 3.3 22:23:25 10° SW 22:26:20 37° SSE 22:29:16 10° E
STARLINK-1330 3.3 22:23:45 10° SW 22:26:40 37° SSE 22:29:36 10° E
STARLINK-1363 3.3 22:24:04 10° SW 22:26:59 37° SSE 22:29:56 10° E
STARLINK-1337 3.3 22:24:27 10° SW 22:27:23 38° SSE 22:30:18 10° E
STARLINK-1342 3.3 22:24:46 10° SW 22:27:41 38° SSE 22:30:38 10° E
STARLINK-1364 3.3 22:25:06 10° SW 22:28:02 38° SSE 22:30:58 10° E
STARLINK-1376 3.3 22:25:26 10° SW 22:28:22 38° SSE 22:31:18 10° E
STARLINK-1360 3.3 22:25:46 10° SW 22:28:42 38° SSE 22:31:39 10° E
STARLINK-1361 3.3 22:26:07 10° SW 22:29:02 38° SSE 22:31:59 10° E
STARLINK-1367 3.3 22:26:22 10° SW 22:29:20 38° SSE 22:32:18 10° E
STARLINK-1366 3.3 22:26:45 10° SW 22:29:41 38° SSE 22:32:38 10° E
STARLINK-1216 4.4 22:26:41 10° W 22:30:26 33° SSW 22:33:11 16° SSE
STARLINK-1338 3.9 22:26:59 10° SW 22:30:45 41° SSE 22:34:31 10° E
Cosmos 2084 Rocket 3.9 22:27:57 10° NW 22:32:23 67° NNE 22:36:52 10° ESE
Cosmos 1908 4.1 22:30:08 10° NNW 22:33:44 40° W 22:36:36 15° SSW
Cosmos 1356 Rocket 3.8 22:30:12 10° N 22:34:23 60° ENE 22:37:47 15° SSE
Nadezhda 1 Rocket 4.5 22:29:02 10° N 22:35:10 56° ENE 22:40:51 12° SSE
STARLINK-1237 4.4 22:31:41 10° W 22:35:23 32° SSW 22:37:58 17° SSE
STARLINK-52 2.9 22:33:16 10° WSW 22:36:26 56° S 22:39:36 10° E
SL-14 R/B 3.6 22:36:22 18° SSE 22:39:00 53° E 22:42:46 10° NNE
Cosmos 2084 3.5 22:34:34 10° SW 22:39:01 77° SE 22:43:31 10° NE
STARLINK-1371 3.8 22:35:20 10° SW 22:39:07 44° SSE 22:42:54 10° E
STARLINK-1202 4.5 22:36:41 10° W 22:40:20 30° SSW 22:42:45 17° SSE
STARLINK-1341 3.8 22:39:37 10° SW 22:43:27 45° SSE 22:47:16 10° E
Thor Agena Rocket 4.0 22:39:05 10° NNE 22:44:20 65° WNW 22:49:31 10° SSW
KORONAS-FOTON 4.2 22:42:06 14° SSW 22:45:22 58° WNW 22:49:15 10° N
Cosmos 1726 4.4 22:43:35 10° NW 22:45:59 16° W 22:48:22 10° SW
Cosmos 1300 2.7 22:42:41 10° NNW 22:46:32 81° W 22:49:12 19° S
Terra 4.2 22:44:27 10° WSW 22:46:37 13° W 22:48:47 10° WNW
STARLINK-1374 3.7 22:43:52 10° SW 22:47:43 47° SSE 22:51:34 10° E
Meteor 2-10 Rocket 4.3 22:44:22 10° N 22:49:22 44° ENE 22:54:08 10° SE
Meteor 2-5 Rocket 3.8 22:46:11 14° SSW 22:51:02 88° WNW 22:56:47 10° NNE
USA 215 3.2 22:44:46 10° SE 22:51:18 69° SSW 22:57:52 10° WNW
STARLINK-1339 3.7 22:48:09 10° WSW 22:52:00 48° SSE 22:55:52 10° E
STARLINK-1444 2.2 22:52:00 10° W 22:54:05 44° S 22:56:14 10° ESE
STARLINK-1452 2.1 22:52:39 10° W 22:54:43 44° S 22:56:51 10° ESE
Cosmos 2292 Rocket 4.5 22:52:03 10° SW 22:54:47 26° WNW 22:57:22 10° N
STARLINK-1392 2.1 22:53:31 10° W 22:55:32 43° S 22:57:12 14° ESE
STARLINK-1399 2.1 22:53:33 10° W 22:55:34 43° S 22:57:22 13° ESE
STARLINK-1393 2.1 22:53:35 10° W 22:55:36 43° S 22:57:20 13° ESE
STARLINK-1394 2.1 22:53:36 10° W 22:55:37 43° S 22:57:22 13° ESE
STARLINK-1395 2.1 22:53:41 10° WSW 22:55:40 43° S 22:57:08 16° ESE
STARLINK-1397 2.1 22:53:39 10° W 22:55:40 43° S 22:57:30 12° ESE
STARLINK-1396 2.1 22:53:40 10° W 22:55:41 43° S 22:57:27 13° ESE
STARLINK-1414 2.1 22:53:40 10° W 22:55:41 43° S 22:57:21 14° ESE
STARLINK-1408 2.1 22:53:43 10° W 22:55:44 43° S 22:57:23 14° ESE
STARLINK-1404 2.1 22:53:44 10° W 22:55:46 43° S 22:57:33 13° ESE
STARLINK-1416 2.1 22:53:46 10° W 22:55:46 43° S 22:57:27 14° ESE
STARLINK-1415 2.1 22:53:46 10° W 22:55:47 43° S 22:57:41 12° ESE
STARLINK-1450 2.1 22:53:47 10° W 22:55:49 43° S 22:57:44 12° ESE
STARLINK-1406 2.1 22:53:50 10° W 22:55:50 43° S 22:57:25 15° ESE
STARLINK-1401 2.1 22:53:49 10° W 22:55:51 43° S 22:57:45 12° ESE
STARLINK-1417 2.1 22:53:53 10° W 22:55:54 43° S 22:57:49 12° ESE
STARLINK-1402 2.1 22:53:54 10° W 22:55:56 43° S 22:57:49 12° ESE
STARLINK-1413 2.1 22:53:54 10° W 22:55:56 43° S 22:57:50 12° ESE
STARLINK-1419 2.1 22:53:55 10° W 22:55:56 43° S 22:57:44 13° ESE
STARLINK-1422 2.1 22:54:00 10° W 22:56:01 43° S 22:57:54 12° ESE
STARLINK-1453 2.1 22:53:59 10° W 22:56:03 43° S 22:58:04 11° ESE
STARLINK-1398 2.1 22:54:00 10° W 22:56:04 44° S 22:58:11 10° ESE
STARLINK-1420 2.1 22:54:03 10° W 22:56:05 43° S 22:58:02 11° ESE
STARLINK-1440 2.1 22:54:04 10° W 22:56:06 43° S 22:58:06 11° ESE
STARLINK-1436 (VISORSAT) 2.1 22:54:04 10° W 22:56:07 44° S 22:58:15 10° ESE
STARLINK-1460 2.1 22:54:05 10° W 22:56:08 43° S 22:58:05 11° ESE
STARLINK-1410 2.1 22:54:11 10° W 22:56:12 43° S 22:58:07 12° ESE
STARLINK-1423 2.1 22:54:12 10° W 22:56:13 43° S 22:58:00 13° ESE
STARLINK-1421 2.1 22:54:12 10° W 22:56:13 43° S 22:58:00 13° ESE
STARLINK-1400 2.1 22:54:11 10° W 22:56:13 43° S 22:58:08 12° ESE
STARLINK-1454 2.1 22:54:12 10° W 22:56:14 43° S 22:58:10 11° ESE
STARLINK-1458 2.1 22:54:15 10° W 22:56:16 43° S 22:58:08 12° ESE
STARLINK-1445 2.1 22:54:17 10° W 22:56:19 43° S 22:58:19 11° ESE
STARLINK-1377 3.7 22:52:27 10° WSW 22:56:19 50° SSE 23:00:13 10° E
STARLINK-1407 2.1 22:54:19 10° W 22:56:21 43° S 22:58:19 11° ESE
STARLINK-1446 2.1 22:54:19 10° W 22:56:22 43° S 22:58:21 11° ESE
STARLINK-1405 2.1 22:54:22 10° W 22:56:22 43° S 22:57:51 16° ESE
STARLINK-1370 2.1 22:54:21 10° W 22:56:24 43° S 22:58:22 11° ESE
STARLINK-1456 2.1 22:54:23 10° W 22:56:24 43° S 22:58:16 12° ESE
STARLINK-1439 2.1 22:54:25 10° W 22:56:24 43° S 22:57:54 16° ESE
STARLINK-1457 2.1 22:54:23 10° W 22:56:25 43° S 22:58:16 12° ESE
STARLINK-1409 2.1 22:54:24 10° W 22:56:25 43° S 22:58:17 12° ESE
STARLINK-1451 2.1 22:54:23 10° W 22:56:25 43° S 22:58:16 12° ESE
STARLINK-1447 2.1 22:54:24 10° W 22:56:26 43° S 22:58:25 11° ESE
STARLINK-1455 2.1 22:54:24 10° W 22:56:26 43° S 22:58:25 11° ESE
STARLINK-1437 2.1 22:54:25 10° W 22:56:27 43° S 22:58:21 12° ESE
STARLINK-1441 2.1 22:54:26 10° W 22:56:28 43° S 22:58:28 11° ESE
STARLINK-1443 2.1 22:54:28 10° W 22:56:31 44° S 22:58:36 10° ESE
STARLINK-1351 2.1 22:54:31 10° W 22:56:33 43° S 22:58:33 11° ESE
STARLINK-1418 2.1 22:54:31 10° W 22:56:33 43° S 22:58:32 11° ESE
STARLINK-1403 2.1 22:54:31 10° W 22:56:34 43° S 22:58:36 11° ESE
STARLINK-1434 2.1 22:54:31 10° W 22:56:34 43° S 22:58:38 10° ESE
STARLINK-1442 2.1 22:54:32 10° W 22:56:34 43° S 22:58:34 11° ESE
STARLINK-1448 2.1 22:54:34 10° W 22:56:36 43° S 22:58:35 11° ESE
STARLINK-1433 2.1 22:54:34 10° W 22:56:37 43° S 22:58:35 11° ESE
STARLINK-1449 2.1 22:54:36 10° W 22:56:38 43° S 22:58:40 11° ESE
STARLINK-1438 2.1 22:54:40 10° W 22:56:42 43° S 22:58:32 12° ESE
STARLINK-1411 2.1 22:54:46 10° W 22:56:49 43° S 22:58:44 11° ESE
STARLINK-1412 2.1 22:54:46 10° W 22:56:49 43° S 22:58:49 11° ESE
Cosmos 1674 3.7 22:53:26 11° SW 22:56:49 41° WNW 23:00:29 10° N
YAOGAN 11 4.1 22:54:28 17° SSE 22:57:49 85° ENE 23:02:09 10° NNW
STARLINK-1353 3.6 22:56:44 10° WSW 23:00:38 51° SSE 23:04:32 10° E
Cosmos 1626 Rocket 4.1 22:57:33 17° SSE 23:00:38 46° E 23:04:52 10° NNE
ATLAS 3B R/B 4.3 22:56:22 10° WNW 23:00:47 18° WSW 23:05:18 10° SSW
Cosmos 2292 4.1 22:59:40 10° NNW 23:02:56 89° W 23:04:48 21° S
SeaSat 1 2.4 22:58:12 10° NE 23:03:10 75° ESE 23:07:34 13° SSW
FALCON 9 DEB 3.1 23:00:30 10° WSW 23:03:54 59° S 23:07:18 10° E
STARLINK-60 3.0 23:01:13 10° W 23:04:20 53° S 23:07:27 10° ESE
STARLINK-1375 3.6 23:01:04 10° WSW 23:04:58 53° SSE 23:08:53 10° E
Cosmos 2058 Rocket 3.7 23:02:20 10° NNW 23:06:36 46° W 23:09:53 16° SSW
BREEZE M DEB (TANK) 4.1 23:06:39 10° WSW 23:06:47 11° WSW 23:06:47 11° WSW
Uosat 12 SS-18 rocket 4.0 23:04:29 10° NW 23:08:48 74° SW 23:13:05 11° SE
STARLINK-1350 3.6 23:05:22 10° WSW 23:09:17 54° SSE 23:13:12 10° E
Helios 1B rocket 3.6 23:07:29 10° NNE 23:11:12 31° E 23:14:04 15° SSE
STARLINK-1352 3.6 23:09:38 10° WSW 23:13:34 55° SSE 23:17:30 10° E
Cosmos 1980 Rocket 3.8 23:10:05 11° SSE 23:13:56 22° ESE 23:18:10 10° NE
ALOS 2 3.7 23:14:35 15° SSW 23:17:41 33° W 23:21:41 10° NNW
Cosmos 468 Rocket 4.4 23:14:13 17° S 23:17:56 49° ESE 23:22:54 10° NE
STARLINK-1368 3.6 23:14:08 10° WSW 23:18:04 57° SSE 23:22:01 10° E
COSMOS 2455 3.8 23:12:52 10° WSW 23:18:43 50° NW 23:24:36 10° NE
ERBS 3.4 23:18:21 10° W 23:21:10 25° SW 23:22:16 21° S
Cosmos 1745 Rocket 4.1 23:16:47 16° S 23:21:46 72° E 23:27:54 10° NNE
Cosmos 1455 2.6 23:18:29 10° N 23:22:13 57° ENE 23:25:11 15° SSE
STARLINK-1369 3.5 23:18:31 10° WSW 23:22:28 58° S 23:26:27 10° E
Cosmos 1937 Rocket 3.5 23:17:12 10° NNW 23:22:29 78° WSW 23:27:02 14° SSE
Cosmos 1812 Rocket 3.6 23:19:10 10° NNW 23:23:39 89° WNW 23:27:04 17° S
Cosmos 1626 2.7 23:20:51 16° SSW 23:23:41 51° WNW 23:27:21 10° N
RESURS DK-1 3.6 23:20:15 10° WSW 23:24:10 40° NW 23:28:07 10° NNE
Cosmos 2369 4.4 23:20:09 16° S 23:24:12 39° ESE 23:29:27 10° NE
USA 229 DEB 4.1 23:17:10 10° NW 23:24:16 73° NNE 23:31:47 10° ESE
USA 229 4.1 23:17:17 10° NW 23:24:22 72° NNE 23:31:53 10° ESE
NOSS 3-1 (C) 4.2 23:18:05 10° NW 23:25:07 77° NE 23:33:24 10° ESE
Cosmos 2263 Rocket 3.1 23:19:44 10° NNW 23:25:13 49° NE 23:30:38 10° ESE
STARLINK-1372 3.5 23:22:49 10° WSW 23:26:47 59° S 23:30:44 10° E
Alouette 2 Rocket 4.0 23:21:30 10° NNW 23:26:56 66° ENE 23:30:22 13° SSE
STARLINK-43 4.4 23:26:08 20° S 23:27:37 26° SSE 23:30:44 10° E
Lacrosse 4 Rocket 1.9 23:24:06 10° NW 23:28:13 44° WSW 23:31:03 18° S
Cosmos 2297 Rocket 3.0 23:24:00 10° NW 23:29:05 35° WSW 23:32:59 16° SSW
NOSS 3-4 (A) 4.4 23:24:10 10° W 23:30:10 52° NNW 23:36:46 10° NE
NOSS 3-4 (C) 4.4 23:24:15 10° W 23:30:16 52° NNW 23:36:52 10° NE
Cosmos 1898 Rocket 3.9 23:26:00 10° NW 23:31:12 53° WSW 23:35:13 16° S
STARLINK-1378 3.5 23:27:19 10° WSW 23:31:18 60° S 23:35:16 10° E
Meteor 1-24 Rocket 4.1 23:27:06 13° SSW 23:31:55 60° WNW 23:37:31 10° N
Cosmos 1656 3.7 23:27:54 15° SSW 23:32:40 74° ESE 23:38:15 10° NE
Cosmos 2219 4.4 23:28:06 10° NW 23:32:51 28° WSW 23:36:34 15° SSW
NOSS 3-1 (A) 4.4 23:26:13 10° NW 23:33:08 68° NNE 23:41:21 10° ESE
Cosmos 921 Rocket 3.9 23:29:37 10° SW 23:33:49 47° WNW 23:38:06 10° NNE
SL-4 R/B 2.5 23:30:23 10° W 23:35:04 50° SSW 23:39:43 10° ESE
Cosmos 372 Rocket 4.2 23:30:04 10° NNW 23:35:13 72° ENE 23:40:23 10° SE
CZ-4C R/B 2.5 23:31:35 16° SSW 23:35:38 51° SE 23:41:39 10° NE
STARLINK-1379 3.5 23:31:47 10° WSW 23:35:46 61° S 23:39:45 10° E
STARLINK-29 3.0 23:33:56 10° W 23:37:05 54° S 23:40:13 10° ESE
Cosmos 1602 Rocket 3.5 23:35:23 18° S 23:38:35 81° E 23:42:57 10° NNE
STARLINK-1329 3.5 23:35:33 10° WSW 23:39:32 62° S 23:43:32 10° E
PSLV R/B 3.9 23:36:10 10° NNE 23:40:36 59° ESE 23:43:52 17° S
Cosmos 2082 4.1 23:38:18 10° NW 23:43:45 49° WSW 23:48:10 15° S
ATLAS CENTAUR R/B 3.0 23:42:09 10° WSW 23:43:35 16° SW 23:43:35 16° SW
STARLINK-1362 3.5 23:40:02 10° WSW 23:44:03 62° S 23:48:03 10° E
Cosmos 2150 Rocket 4.3 23:42:07 10° NNW 23:47:18 69° ENE 23:52:27 10° SE
Cosmos 192 4.5 23:43:01 13° SW 23:47:25 75° WNW 23:52:25 10° NNE
STARLINK-1373 3.5 23:44:34 10° WSW 23:48:35 63° S 23:52:35 10° E
EO 1 Delta rocket 4.4 23:44:23 10° N 23:49:49 58° WNW 23:53:51 14° SSW
Helios 1A 4.3 23:47:33 14° SW 23:50:18 27° W 23:53:55 10° NW
Cosmos 2181 Rocket 4.2 23:45:09 10° N 23:51:39 76° ENE 23:58:00 10° SSE
STARLINK-1320 2.8 23:49:02 10° WSW 23:52:08 58° S 23:55:12 10° E
STARLINK-1322 2.8 23:49:24 10° WSW 23:52:28 58° S 23:55:34 10° E
STARLINK-1324 2.8 23:49:42 10° W 23:52:47 58° S 23:55:52 10° E
STARLINK-1294 2.9 23:50:01 10° W 23:53:06 58° S 23:56:12 10° E
Cosmos 2322 Rocket 4.4 23:51:01 10° ESE 23:53:06 12° E 23:55:10 10° ENE
STARLINK-1390 3.5 23:49:06 10° WSW 23:53:07 64° S 23:57:08 10° E
STARLINK-1261 2.8 23:50:24 10° W 23:53:29 58° S 23:56:34 10° E
STARLINK-1325 2.8 23:50:45 10° W 23:53:49 58° S 23:56:54 10° E
STARLINK-1333 2.8 23:51:07 10° W 23:54:11 58° S 23:57:17 10° E
STARLINK-1334 2.8 23:51:24 10° W 23:54:29 58° S 23:57:33 10° E
ATLAS CENTAUR R/B 3.6 23:51:07 10° WNW 23:54:36 26° NNW 23:57:55 10° NE
STARLINK-1326 2.8 23:51:44 10° W 23:54:48 58° S 23:57:53 10° E
STARLINK-1323 2.8 23:52:06 10° W 23:55:11 58° S 23:58:16 10° E
STARLINK-1349 2.8 23:52:24 10° W 23:55:28 58° S 23:58:33 10° E
STARLINK-1336 2.8 23:52:43 10° W 23:55:48 58° S 23:58:53 10° E
STARLINK-1331 2.8 23:53:07 10° W 23:56:11 58° S 23:59:16 10° E
STARLINK-1344 2.8 23:53:24 10° W 23:56:30 58° S 23:59:34 10° E
STARLINK-1343 2.8 23:53:47 10° W 23:56:51 58° S 23:59:57 10° E
